[[{"header":{"parameterUnit":"m.s-1","parameterCategory":1,"la1":30.2991,"la2":30.254,"lo1":-89.0895,"lo2":-89.0444,"dy":0.0017,"dx":0.0017,"nx":28,"ny":28,"refTime":"2023-09-23T09:00:00:Z","depth":0,"parameterNumber":2,"parameterNumberName":"U-component_of_WINDS"},"data":[0,0,0,0,0,0,0,0,0,0,0,0,0,0,0,0,0,0,0,0,0,0,0,0,0,0,0,0,0,0,0,0,0,0,0,0,0,0,0,0,0,0,0,0,0,0,0,0,0,0,0,0,0,0,0,0,0,0,-2.1727,-2.1727,0,-2.1706,-2.1706,-2.1706,-2.1607,-2.1605,-2.1602,-2.16,-2.158,-2.1582,-2.1583,0,0,0,0,0,0,0,0,0,0,0,0,0,-2.1683,-2.1684,-2.1727,-2.1727,-2.1726,-2.1706,-2.1706,-2.1706,-2.1608,-2.1605,-2.1602,-2.1599,-2.158,-2.1582,-2.1584,0,0,0,0,0,0,0,0,0,0,0,0,0,-2.1686,-2.1685,-2.1727,-2.1675,-2.167,-2.1706,-2.1706,-2.1705,-2.1608,-2.1605,-2.1601,-2.1598,-2.1579,-2.1581,-2.1584,-2.1669,0,0,-2.1591,-2.1592,0,0,0,0,0,0,0,0,-2.1686,-2.1688,-2.1683,-2.1679,-2.1673,-2.1656,-2.1683,-2.1693,-2.1609,-2.1632,-2.16,-2.1596,-2.1608,-2.1608,-2.1612,-2.1668,-2.1667,-2.1592,-2.1593,-2.1594,-2.1595,0,0,0,0,0,0,0,-2.1686,-2.1688,-2.1719,-2.1683,-2.1677,-2.1653,-2.165,-2.1684,-2.164,-2.1629,-2.1622,-2.1621,-2.1605,-2.161,-2.1611,-2.1667,-2.1591,-2.1594,-2.1595,-2.1596,-2.1791,-2.1795,0,0,0,0,0,0,-2.1693,-2.1689,-2.1719,-2.1718,-2.1671,-2.1657,-2.1653,-2.1665,-2.1639,-2.1632,-2.1624,-2.1617,-2.1607,-2.1608,-2.161,-2.1707,-2.1594,-2.1596,-2.1598,-2.1788,-2.1792,-2.1796,0,0,0,0,0,0,-2.1693,-2.1697,-2.172,-2.1701,-2.1703,-2.1661,-2.1675,-2.1666,-2.1671,-2.1635,-2.1627,-2.1637,-2.1605,-2.1606,-2.1655,-2.1705,-2.1597,-2.16,-2.1783,-2.1789,-2.1794,-2.1902,0,0,0,0,0,0,-2.1692,-2.1697,-2.1728,-2.1703,-2.1704,-2.1765,-2.1678,-2.1668,-2.1675,-2.1665,-2.1645,-2.1638,-2.1602,-2.1652,-2.1657,-2.1706,-2.1602,-2.1778,-2.1786,-2.1792,-2.1894,-2.1911,-2.1925,0,0,0,0,0,-2.169,-2.176,-2.1731,-2.1735,-2.1742,-2.1768,-2.1769,-2.1725,-2.168,-2.1711,-2.1688,-2.1639,-2.1699,-2.1657,-2.1663,-2.1713,-2.1775,-2.1784,-2.1792,-2.1887,-2.1908,-2.1925,0,0,0,0,0,0,-2.1793,-2.1756,-2.1723,-2.1786,-2.1781,-2.1752,-2.179,-2.1749,-2.1757,-2.1747,-2.1693,-2.1689,-2.1746,-2.1734,-2.1689,-2.1794,-2.1729,-2.1739,-2.1799,-2.1818,-2.1834,-2.1835,-2.1604,0,0,0,0,0,-2.1823,-2.1847,-2.1813,-2.1872,-2.1871,-2.1832,-2.1841,-2.1808,-2.1801,-2.1799,-2.1779,-2.1775,-2.1792,-2.1805,-2.1819,-2.1893,-2.1887,-2.193,-2.1946,-2.1959,-2.1968,-2.2006,-2.2024,-2.1824,-2.1823,-2.1823,0,0,-2.1885,-2.1867,-2.1886,-2.1892,-2.1885,-2.1911,-2.183,-2.1862,-2.1881,-2.1803,-2.1847,-2.1834,-2.1825,-2.1887,-2.1913,-2.1879,-2.2022,-2.1969,-2.198,-2.1982,-2.2016,-2.2035,-2.2052,-2.1829,-2.1828,-2.1827,0,0,-2.201,-2.2,-2.2048,-2.2042,-2.2032,-2.2005,-2.2017,-2.1994,-2.1981,-2.2025,-2.1968,-2.199,-2.2022,-2.2018,-2.202,-2.2146,-2.2101,-2.2153,-2.2234,-2.2272,-2.2287,-2.2301,-2.2346,-2.2362,-2.2162,-2.2162,-2.2162,0,-2.2089,-2.2125,-2.2078,-2.2113,-2.2118,-2.2049,-2.2098,-2.2094,-2.209,-2.2095,-2.2057,-2.2095,-2.2085,-2.2144,-2.2175,-2.2179,-2.2191,-2.2154,-2.2289,-2.2302,-2.2314,-2.2356,-2.2373,-2.2168,-2.2168,-2.2167,-2.2166,0,-2.2222,-2.2249,-2.2289,-2.2285,-2.2295,-2.2337,-2.2296,-2.2311,-2.2278,-2.2256,-2.2301,-2.2286,-2.2296,-2.2308,-2.2276,-2.2364,-2.2343,-2.2298,-2.2231,-2.234,-2.2379,-2.2395,-2.2177,-2.2175,-2.2173,-2.2172,0,0,-2.241,-2.2381,-2.2396,-2.2394,-2.2378,-2.2398,-2.2437,-2.2447,-2.2461,-2.246,-2.2491,-2.2521,-2.2479,-2.2482,-2.2449,-2.2482,-2.2583,-2.2433,-2.2432,-2.246,-2.2678,-2.2711,-2.273,-2.2553,-2.2556,-2.2559,-2.2678,0,-2.253,-2.2594,-2.2553,-2.2624,-2.2648,-2.2584,-2.2618,-2.2612,-2.2593,-2.2611,-2.2589,-2.261,-2.2554,-2.2555,-2.2586,-2.2564,-2.2625,-2.2555,-2.2582,-2.2583,-2.2585,-2.275,-2.2785,-2.2898,-2.2693,-2.2696,-2.2697,0,-2.2677,-2.2683,-2.2756,-2.2736,-2.2744,-2.2776,-2.2781,-2.28,-2.2792,-2.2776,-2.278,-2.2739,-2.2776,-2.2711,-2.2762,-2.2715,-2.2724,-2.2715,-2.2719,-2.2718,-2.2646,-2.2754,-2.2934,-2.295,-2.2721,-2.2719,-2.2717,0,-2.2806,-2.2832,-2.2879,-2.288,-2.2857,-2.2881,-2.2873,-2.2862,-2.2871,-2.2876,-2.2881,-2.2892,-2.2897,-2.2906,-2.2869,-2.2825,-2.2925,-2.2857,-2.2912,-2.2913,-2.2935,-2.2934,-2.3118,-2.2943,-2.2943,-2.2942,-2.2942,0,-2.2943,-2.299,-2.2937,-2.2966,-2.3017,-2.297,-2.3022,-2.3007,-2.2999,-2.3024,-2.297,-2.2995,-2.2945,-2.2966,-2.2937,-2.2984,-2.2987,-2.2975,-2.2966,-2.2979,-2.298,-2.2982,-2.2973,-2.2947,-2.2946,-2.2945,-2.2944,0,-2.3095,-2.3061,-2.3108,-2.3083,-2.3078,-2.3117,-2.3096,-2.3122,-2.31,-2.3132,-2.3137,-2.3102,-2.3123,-2.3088,-2.3105,-2.3086,-2.315,-2.313,-2.3152,-2.3146,-2.3203,-2.3197,-2.3394,-2.3417,-2.3229,-2.3231,-2.3232,0,-2.3183,-2.3218,-2.3198,-2.321,-2.3205,-2.3227,-2.3236,-2.3192,-2.3203,-2.3198,-2.3225,-2.3241,-2.3252,-2.3289,-2.3265,-2.3278,-2.3257,-2.3325,-2.3258,-2.327,-2.3257,-2.3255,-2.3258,-2.3338,-2.3341,-2.3342,-2.3344,0,-2.3345,-2.3326,-2.334,-2.335,-2.3361,-2.3366,-2.3367,-2.3381,-2.3335,-2.3351,-2.3371,-2.338,-2.3397,-2.3414,-2.3422,-2.3413,-2.3371,-2.3365,-2.3379,-2.3391,-2.3402,-2.3396,-2.3188,-2.3361,-2.3359,-2.3358,-2.3357,-2.3356,-2.3466,-2.3494,-2.3484,-2.3502,-2.3499,-2.3501,-2.3524,-2.3505,-2.3521,-2.3532,-2.3505,-2.3533,-2.3525,-2.353,-2.3527,-2.3548,-2.3518,-2.3538,-2.3542,-2.3547,-2.3556,-2.34,-2.355,-2.3549,-2.3549,-2.3548,-2.3548,0,-2.3623,-2.3614,-2.3631,-2.3635,-2.3649,-2.3609,-2.3608,-2.3623,-2.3647,-2.3644,-2.3656,-2.368,-2.3697,-2.3675,-2.3688,-2.3709,-2.369,-2.3714,-2.3711,-2.371,-2.3583,-2.3569,-2.3729,-2.3729,-2.3729,-2.3729,-2.3729,-2.3729,-2.3707,-2.3752,-2.3733,-2.3776,-2.3766,-2.3792,-2.3795,-2.3798,-2.3795,-2.3824,-2.3838,-2.3823,-2.3813,-2.3825,-2.3839,-2.3832,-2.3839,-2.3869,-2.3856,-2.3737,-2.3719,-2.3702,-2.3689,-2.3871,-2.3872,-2.3981,-2.3982,-2.3983]},{"header":{"parameterUnit":"m.s-1","parameterCategory":1,"la1":30.2991,"la2":30.254,"lo1":-89.0895,"lo2":-89.0444,"dy":0.0017,"dx":0.0017,"nx":28,"ny":28,"refTime":"2023-09-23T09:00:00:Z","depth":0,"parameterNumber":3,"parameterNumberName":"V-component_of_WINDS"},"data":[0,0,0,0,0,0,0,0,0,0,0,0,0,0,0,0,0,0,0,0,0,0,0,0,0,0,0,0,0,0,0,0,0,0,0,0,0,0,0,0,0,0,0,0,0,0,0,0,0,0,0,0,0,0,0,0,0,0,-2.2401,-2.2402,0,-2.245,-2.2451,-2.2451,-2.2438,-2.2437,-2.2436,-2.2435,-2.2481,-2.2483,-2.2485,0,0,0,0,0,0,0,0,0,0,0,0,0,-2.2293,-2.2295,-2.2401,-2.2402,-2.2402,-2.245,-2.2451,-2.2451,-2.2438,-2.2437,-2.2436,-2.2435,-2.2481,-2.2483,-2.2486,0,0,0,0,0,0,0,0,0,0,0,0,0,-2.2341,-2.2296,-2.2401,-2.2402,-2.2402,-2.245,-2.2451,-2.2451,-2.2438,-2.2437,-2.2435,-2.2434,-2.248,-2.2483,-2.2486,-2.2535,0,0,-2.2496,-2.2497,0,0,0,0,0,0,0,0,-2.2338,-2.2345,-2.2401,-2.2402,-2.2402,-2.2437,-2.2429,-2.2479,-2.2439,-2.2425,-2.2435,-2.2433,-2.2467,-2.2471,-2.2484,-2.2537,-2.2539,-2.2496,-2.2498,-2.2499,-2.25,0,0,0,0,0,0,0,-2.2335,-2.2342,-2.242,-2.2402,-2.2403,-2.2398,-2.2403,-2.2439,-2.2453,-2.2426,-2.2425,-2.2431,-2.2467,-2.2481,-2.2485,-2.2539,-2.2496,-2.2499,-2.2501,-2.2502,-2.2635,-2.2636,0,0,0,0,0,0,-2.2331,-2.234,-2.2419,-2.2422,-2.2366,-2.2401,-2.2407,-2.2427,-2.2453,-2.2456,-2.2432,-2.243,-2.2476,-2.2481,-2.2486,-2.2545,-2.2499,-2.2502,-2.2504,-2.2633,-2.2635,-2.2637,0,0,0,0,0,0,-2.2329,-2.2338,-2.2417,-2.2381,-2.239,-2.2405,-2.2427,-2.2429,-2.2442,-2.2458,-2.246,-2.2443,-2.2475,-2.2482,-2.2523,-2.2546,-2.2504,-2.2507,-2.2631,-2.2634,-2.2636,-2.2662,0,0,0,0,0,0,-2.2326,-2.2338,-2.2357,-2.2381,-2.2392,-2.2454,-2.2429,-2.2431,-2.2448,-2.2446,-2.2469,-2.2471,-2.2474,-2.2518,-2.2526,-2.255,-2.2509,-2.2629,-2.2632,-2.2635,-2.2659,-2.2665,-2.267,0,0,0,0,0,-2.2322,-2.2362,-2.2358,-2.2368,-2.2417,-2.2455,-2.2461,-2.2465,-2.245,-2.2469,-2.2479,-2.247,-2.2542,-2.2523,-2.2531,-2.2556,-2.2628,-2.2631,-2.2635,-2.2657,-2.2664,-2.267,0,0,0,0,0,0,-2.2339,-2.2365,-2.2361,-2.241,-2.2431,-2.2453,-2.2477,-2.2473,-2.2497,-2.2494,-2.2496,-2.2502,-2.2544,-2.2554,-2.2532,-2.2604,-2.2582,-2.2588,-2.2596,-2.2603,-2.2608,-2.2605,-2.2512,0,0,0,0,0,-2.2349,-2.2379,-2.2399,-2.244,-2.2451,-2.2463,-2.2479,-2.2481,-2.2501,-2.2509,-2.2523,-2.2542,-2.2569,-2.2587,-2.2612,-2.2661,-2.2665,-2.2682,-2.2687,-2.2692,-2.2696,-2.2722,-2.273,-2.2648,-2.2648,-2.2648,0,0,-2.2368,-2.2386,-2.2405,-2.2444,-2.246,-2.249,-2.247,-2.2502,-2.2524,-2.2514,-2.2554,-2.2564,-2.2586,-2.2631,-2.2652,-2.2641,-2.272,-2.2696,-2.27,-2.2702,-2.2726,-2.2734,-2.2741,-2.2651,-2.265,-2.265,0,0,-2.2419,-2.2436,-2.2472,-2.2489,-2.2514,-2.2522,-2.253,-2.2554,-2.2561,-2.2601,-2.2594,-2.2619,-2.2666,-2.2682,-2.2696,-2.2753,-2.2746,-2.2761,-2.279,-2.2815,-2.2821,-2.2827,-2.2847,-2.2854,-2.2766,-2.2766,-2.2766,0,-2.244,-2.2486,-2.2491,-2.2524,-2.2542,-2.2535,-2.2571,-2.2587,-2.2618,-2.263,-2.2618,-2.2676,-2.2691,-2.2739,-2.2753,-2.2765,-2.2774,-2.2759,-2.282,-2.2826,-2.2831,-2.285,-2.2858,-2.2768,-2.2768,-2.2767,-2.2767,0,-2.251,-2.2542,-2.2568,-2.26,-2.262,-2.2655,-2.2664,-2.2683,-2.2683,-2.2691,-2.2732,-2.2749,-2.2778,-2.279,-2.2789,-2.2838,-2.2831,-2.2819,-2.2797,-2.284,-2.2858,-2.2866,-2.277,-2.277,-2.2769,-2.2769,0,0,-2.2572,-2.2608,-2.2617,-2.2631,-2.2659,-2.2683,-2.2717,-2.2746,-2.2763,-2.2785,-2.2812,-2.2852,-2.2842,-2.2858,-2.2859,-2.2881,-2.2925,-2.2867,-2.2868,-2.2877,-2.2979,-2.2987,-2.2995,-2.2921,-2.2922,-2.2923,-2.2977,0,-2.2625,-2.2686,-2.2692,-2.2746,-2.2775,-2.277,-2.2799,-2.2818,-2.2827,-2.2852,-2.2861,-2.2889,-2.2874,-2.2884,-2.2905,-2.2915,-2.2945,-2.2911,-2.2945,-2.2946,-2.2939,-2.3005,-2.3013,-2.3063,-2.2984,-2.2985,-2.2986,0,-2.2695,-2.272,-2.2778,-2.2801,-2.2814,-2.284,-2.2868,-2.2892,-2.2914,-2.2918,-2.2937,-2.2935,-2.2968,-2.2946,-2.2991,-2.2968,-2.2982,-2.2989,-2.2991,-2.2994,-2.2968,-2.3008,-2.3079,-2.3086,-2.2997,-2.2996,-2.2996,0,-2.2734,-2.2782,-2.2823,-2.2836,-2.2864,-2.2883,-2.2895,-2.2916,-2.2933,-2.2957,-2.2968,-2.2995,-2.3009,-2.3029,-2.3034,-2.3018,-2.308,-2.3058,-2.3084,-2.3083,-2.3096,-2.3095,-2.3169,-2.3107,-2.3106,-2.3106,-2.3106,0,-2.2792,-2.2827,-2.2841,-2.2866,-2.2905,-2.291,-2.2948,-2.296,-2.2978,-2.3004,-2.3001,-2.3025,-2.3031,-2.3056,-2.306,-2.3096,-2.3103,-2.3107,-2.3107,-2.3107,-2.3106,-2.3115,-2.3112,-2.3108,-2.3108,-2.3107,-2.3107,0,-2.2841,-2.2852,-2.2896,-2.292,-2.2927,-2.2954,-2.2974,-2.2998,-2.3006,-2.3039,-2.3047,-2.306,-2.309,-2.3097,-2.3132,-2.3134,-2.3178,-2.3175,-2.3171,-2.317,-2.3196,-2.3193,-2.3278,-2.3289,-2.3219,-2.322,-2.3221,0,-2.2877,-2.2904,-2.2932,-2.295,-2.2963,-2.2992,-2.301,-2.3017,-2.3036,-2.3063,-2.3082,-2.3112,-2.3135,-2.3182,-2.3194,-2.322,-2.3218,-2.3246,-2.3222,-2.322,-2.3217,-2.3216,-2.3218,-2.325,-2.3251,-2.3251,-2.3252,0,-2.2939,-2.2944,-2.2971,-2.3,-2.3022,-2.3045,-2.3067,-2.3081,-2.3091,-2.3112,-2.3143,-2.3161,-2.3197,-2.3226,-2.3253,-2.3264,-2.3259,-2.326,-2.3267,-2.3266,-2.3262,-2.3264,-2.3182,-2.3257,-2.3257,-2.3256,-2.3256,-2.3256,-2.2983,-2.3006,-2.303,-2.306,-2.3077,-2.3098,-2.3121,-2.3134,-2.316,-2.3191,-2.3193,-2.3226,-2.3246,-2.3282,-2.3295,-2.332,-2.3311,-2.3322,-2.3324,-2.3327,-2.3329,-2.3259,-2.3325,-2.3325,-2.3325,-2.3324,-2.3324,0,-2.3044,-2.3059,-2.3087,-2.3119,-2.3142,-2.3137,-2.3161,-2.3181,-2.3211,-2.3231,-2.3255,-2.329,-2.3318,-2.3332,-2.336,-2.3377,-2.3375,-2.3384,-2.3382,-2.3385,-2.3335,-2.3326,-2.3385,-2.3385,-2.3385,-2.3385,-2.3385,-2.3385,-2.3079,-2.3119,-2.3126,-2.3175,-2.3189,-2.3223,-2.3237,-2.3255,-2.3271,-2.3311,-2.3335,-2.3345,-2.3362,-2.3391,-2.3416,-2.342,-2.3429,-2.3439,-2.3441,-2.3394,-2.3388,-2.3382,-2.3374,-2.3441,-2.3441,-2.3488,-2.3489,-2.3489]}]]